Zurück zum Katalog

STARLINK-36769

AktivKommunikationVLEO
NORAD 67871·PAYLOAD·🇺🇸 United States

Gestartet Feb 20, 2026 von Vandenberg Space Force Base

Loading…

Nächste Überflüge (nächste 24 Stunden)

TLE

AktuellSource: CelesTrak SupGP

Epoche: Sep 14, 2026, 21:31 UTC

1 67871C 26034X   26257.89701389  .00047040  00000+0  13910-2 0  2578
2 67871  53.1595  44.0381 0001237  83.0938 264.2970 15.34340121    18

Verfolge STARLINK-36769 in Echtzeit mit AllMySat

Download on the App Store